• Em Portugal
  • Lista de países
  • Para 7 dias
  • Temperatura da água
  • Mapas de satélite
  • Mapa do tempo
  • Widgets de tempo
  • user-avatar
    Iniciar Sessão

    Previsão horária em Isfahan

    Hoje, 25 Novembro, Sábado

    Tempo Temperatura Precipitação Vento Pressão Humidade
    00:00 +4°C° 0 mm 2 m/s 630 mmHg 36%
    01:00 +4°C° 0 mm 2 m/s 630 mmHg 38%
    02:00 +3°C° 0 mm 2 m/s 630 mmHg 40%
    03:00 +4°C° 0 mm 1 m/s 629 mmHg 44%
    04:00 +3°C° 0 mm 1 m/s 629 mmHg 45%
    05:00 +3°C° 0 mm 1 m/s 630 mmHg 47%
    06:00 +3°C° 0 mm 1 m/s 630 mmHg 48%
    07:00 +4°C° 0 mm 1 m/s 630 mmHg 44%
    08:00 +5°C° 0 mm 1 m/s 631 mmHg 41%
    09:00 +6°C° 0 mm 1 m/s 631 mmHg 37%
    10:00 +8°C° 0 mm 1 m/s 631 mmHg 34%
    11:00 +9°C° 0 mm 1 m/s 631 mmHg 30%
    12:00 +10°C° 0 mm 1 m/s 631 mmHg 27%
    13:00 +11°C° 0 mm 1 m/s 631 mmHg 25%
    14:00 +11°C° 0 mm 1 m/s 631 mmHg 23%
    15:00 +12°C° 0 mm 1 m/s 631 mmHg 21%
    16:00 +11°C° 0 mm 1 m/s 631 mmHg 24%
    17:00 +9°C° 0 mm 1 m/s 631 mmHg 26%
    18:00 +8°C° 0 mm 1 m/s 632 mmHg 28%
    19:00 +8°C° 0 mm 1 m/s 632 mmHg 30%
    20:00 +7°C° 0 mm 1 m/s 632 mmHg 31%
    21:00 +7°C° 0 mm 1 m/s 632 mmHg 32%
    22:00 +6°C° 0 mm 1 m/s 632 mmHg 33%
    23:00 +6°C° 0 mm 1 m/s 632 mmHg 34%

    Amanhã, 26 Novembro, Domingo

    Tempo Temperatura Precipitação Vento Pressão Humidade
    00:00 +6°C° 0 mm 1 m/s 632 mmHg 35%
    01:00 +5°C° 0 mm 1 m/s 632 mmHg 36%
    02:00 +5°C° 0 mm 1 m/s 632 mmHg 37%
    03:00 +4°C° 0 mm 1 m/s 632 mmHg 37%
    04:00 +4°C° 0 mm 1 m/s 632 mmHg 38%
    05:00 +4°C° 0 mm 1 m/s 631 mmHg 39%
    06:00 +3°C° 0 mm 1 m/s 631 mmHg 40%
    07:00 +5°C° 0 mm 1 m/s 632 mmHg 35%
    08:00 +7°C° 0 mm 1 m/s 633 mmHg 31%
    09:00 +8°C° 0 mm 1 m/s 633 mmHg 27%
    10:00 +9°C° 0 mm 1 m/s 633 mmHg 25%
    11:00 +10°C° 0 mm 1 m/s 633 mmHg 22%
    12:00 +11°C° 0 mm 1 m/s 633 mmHg 20%
    13:00 +12°C° 0 mm 1 m/s 632 mmHg 19%
    14:00 +12°C° 0 mm 2 m/s 632 mmHg 18%
    15:00 +13°C° 0 mm 2 m/s 632 mmHg 18%
    16:00 +12°C° 0 mm 2 m/s 632 mmHg 20%
    17:00 +10°C° 0 mm 1 m/s 632 mmHg 22%
    18:00 +9°C° 0 mm 1 m/s 632 mmHg 23%
    19:00 +9°C° 0 mm 1 m/s 632 mmHg 24%
    20:00 +9°C° 0 mm 1 m/s 632 mmHg 25%
    21:00 +8°C° 0 mm 1 m/s 631 mmHg 25%
    22:00 +8°C° 0 mm 1 m/s 631 mmHg 26%
    23:00 +8°C° 0 mm 1 m/s 631 mmHg 26%

    Depois de amanhã, 27 Novembro, Segunda-feira

    Tempo Temperatura Precipitação Vento Pressão Humidade
    00:00 +6°C° 0 mm 0 m/s 631 mmHg 26%
    01:00 +6°C° 0 mm 0 m/s 630 mmHg 27%
    02:00 +6°C° 0 mm 0 m/s 630 mmHg 28%
    03:00 +6°C° 0 mm 0 m/s 630 mmHg 29%
    04:00 +6°C° 0 mm 0 m/s 630 mmHg 31%
    05:00 +5°C° 0 mm 0 m/s 630 mmHg 32%
    06:00 +5°C° 0 mm 0 m/s 630 mmHg 34%
    07:00 +7°C° 0 mm 0 m/s 631 mmHg 32%
    08:00 +9°C° 0 mm 1 m/s 632 mmHg 30%
    09:00 +11°C° 0 mm 1 m/s 632 mmHg 28%
    10:00 +12°C° 0 mm 1 m/s 632 mmHg 29%
    11:00 +13°C° 0 mm 2 m/s 632 mmHg 29%
    12:00 +14°C° 0 mm 2 m/s 632 mmHg 30%
    13:00 +14°C° 0 mm 2 m/s 631 mmHg 31%
    14:00 +13°C° 0 mm 3 m/s 631 mmHg 32%
    15:00 +13°C° 0 mm 3 m/s 631 mmHg 33%
    16:00 +12°C° 0,1 mm 3 m/s 631 mmHg 36%
    17:00 +12°C° 0,1 mm 2 m/s 630 mmHg 40%
    18:00 +10°C° 0,1 mm 2 m/s 630 mmHg 44%
    19:00 +10°C° 0,1 mm 1 m/s 630 mmHg 47%
    20:00 +9°C° 0,1 mm 1 m/s 630 mmHg 50%
    21:00 +8°C° 0,1 mm 0 m/s 630 mmHg 54%
    22:00 +7°C° 0 mm 0 m/s 630 mmHg 56%
    23:00 +7°C° 0 mm 0 m/s 629 mmHg 58%

    28 Novembro, Terça-feira

    Tempo Temperatura Precipitação Vento Pressão Humidade
    00:00 +7°C° 0 mm 0 m/s 629 mmHg 59%
    01:00 +6°C° 0 mm 0 m/s 629 mmHg 61%
    02:00 +6°C° 0 mm 0 m/s 629 mmHg 63%
    03:00 +6°C° 0 mm 0 m/s 629 mmHg 65%
    04:00 +6°C° 0 mm 0 m/s 629 mmHg 68%
    05:00 +5°C° 0 mm 0 m/s 629 mmHg 70%
    06:00 +5°C° 0 mm 0 m/s 629 mmHg 72%
    07:00 +7°C° 0 mm 0 m/s 630 mmHg 65%
    08:00 +8°C° 0 mm 0 m/s 631 mmHg 58%
    09:00 +10°C° 0 mm 0 m/s 632 mmHg 52%
    10:00 +11°C° 0 mm 0 m/s 632 mmHg 48%
    11:00 +12°C° 0 mm 0 m/s 632 mmHg 44%
    12:00 +14°C° 0 mm 1 m/s 631 mmHg 41%
    13:00 +14°C° 0 mm 1 m/s 631 mmHg 39%
    14:00 +14°C° 0 mm 1 m/s 631 mmHg 37%
    15:00 +15°C° 0 mm 1 m/s 631 mmHg 36%
    16:00 +14°C° 0 mm 1 m/s 631 mmHg 38%
    17:00 +13°C° 0 mm 1 m/s 631 mmHg 41%
    18:00 +12°C° 0 mm 1 m/s 631 mmHg 43%
    19:00 +11°C° 0 mm 1 m/s 631 mmHg 44%
    20:00 +11°C° 0 mm 1 m/s 631 mmHg 45%
    21:00 +10°C° 0 mm 1 m/s 631 mmHg 46%
    22:00 +10°C° 0 mm 1 m/s 631 mmHg 47%
    23:00 +9°C° 0 mm 1 m/s 631 mmHg 48%

    29 Novembro, Quarta-feira

    Tempo Temperatura Precipitação Vento Pressão Humidade
    00:00 +8°C° 0 mm 1 m/s 630 mmHg 48%
    01:00 +7°C° 0 mm 0 m/s 630 mmHg 50%
    02:00 +7°C° 0 mm 0 m/s 630 mmHg 51%
    03:00 +6°C° 0 mm 0 m/s 630 mmHg 52%
    04:00 +6°C° 0 mm 0 m/s 630 mmHg 53%
    05:00 +6°C° 0 mm 0 m/s 630 mmHg 54%
    06:00 +5°C° 0 mm 0 m/s 630 mmHg 55%
    07:00 +7°C° 0 mm 0 m/s 631 mmHg 50%
    08:00 +9°C° 0 mm 0 m/s 632 mmHg 45%
    09:00 +10°C° 0 mm 0 m/s 633 mmHg 40%
    10:00 +12°C° 0 mm 1 m/s 633 mmHg 37%
    11:00 +13°C° 0 mm 1 m/s 633 mmHg 35%
    12:00 +14°C° 0 mm 1 m/s 633 mmHg 33%
    13:00 +14°C° 0 mm 1 m/s 632 mmHg 32%
    14:00 +15°C° 0 mm 1 m/s 632 mmHg 30%
    15:00 +15°C° 0 mm 1 m/s 632 mmHg 29%
    16:00 +14°C° 0 mm 1 m/s 632 mmHg 32%
    17:00 +13°C° 0 mm 1 m/s 632 mmHg 35%
    18:00 +12°C° 0 mm 1 m/s 632 mmHg 38%
    19:00 +11°C° 0 mm 1 m/s 632 mmHg 39%
    20:00 +11°C° 0 mm 1 m/s 632 mmHg 41%
    21:00 +10°C° 0 mm 1 m/s 632 mmHg 42%
    22:00 +9°C° 0 mm 1 m/s 631 mmHg 43%
    23:00 +9°C° 0 mm 1 m/s 631 mmHg 44%

    30 Novembro, Quinta-feira

    Tempo Temperatura Precipitação Vento Pressão Humidade
    00:00 +8°C° 0 mm 1 m/s 630 mmHg 45%
    01:00 +7°C° 0 mm 0 m/s 630 mmHg 46%
    02:00 +6°C° 0 mm 0 m/s 630 mmHg 47%
    03:00 +6°C° 0 mm 0 m/s 629 mmHg 48%
    04:00 +6°C° 0 mm 0 m/s 629 mmHg 49%
    05:00 +5°C° 0 mm 0 m/s 629 mmHg 49%
    06:00 +5°C° 0 mm 0 m/s 629 mmHg 50%
    07:00 +7°C° 0 mm 0 m/s 630 mmHg 44%
    08:00 +9°C° 0 mm 0 m/s 631 mmHg 39%
    09:00 +10°C° 0 mm 0 m/s 632 mmHg 33%
    10:00 +11°C° 0 mm 0 m/s 632 mmHg 30%
    11:00 +14°C° 0 mm 1 m/s 631 mmHg 27%
    12:00 +15°C° 0 mm 1 m/s 631 mmHg 24%
    13:00 +15°C° 0 mm 1 m/s 631 mmHg 23%
    14:00 +15°C° 0 mm 1 m/s 631 mmHg 22%
    15:00 +16°C° 0 mm 1 m/s 631 mmHg 20%
    16:00 +14°C° 0 mm 1 m/s 631 mmHg 23%
    17:00 +13°C° 0 mm 1 m/s 630 mmHg 26%
    18:00 +12°C° 0 mm 1 m/s 630 mmHg 29%
    19:00 +11°C° 0 mm 1 m/s 630 mmHg 30%
    20:00 +10°C° 0 mm 1 m/s 630 mmHg 31%
    21:00 +10°C° 0 mm 1 m/s 630 mmHg 33%
    22:00 +9°C° 0 mm 1 m/s 630 mmHg 33%
    23:00 +9°C° 0 mm 1 m/s 629 mmHg 34%
    Mostrar mais